Retour au catalogue

COSMOS 1191 DEB

LostHEO
NORAD 26977·DEBRIS·🇷🇺 Russia

Lancé Jul 2, 1980 depuis Plesetsk Cosmodrome

Loading…

Prochains Passages (prochaines 24 heures)

TLE

PériméSource: Space-Track

Époque: Nov 11, 2021, 05:28 UTC

1 26977U 80057H   21315.22783569  .00000407  00000-0  00000-0 0  9996
2 26977  64.5590 205.6654 6486758  42.9603 352.5581  1.99693401146628

Suivez COSMOS 1191 DEB en temps réel avec AllMySat

Download on the App Store